Home   Weather   Bournemouth   Past weeks

Flag for United Kingdom Past Weather in Bournemouth, England, United Kingdom — Yesterday and Last 2 Weeks

Now
52 °F

Fog.


Feels Like: 49 °F
Forecast: N/A
Wind: 9 mph from Southwest

Location: Bournemouth Airport

Current Time: Dec 9, 2016 at 5:45:15 pm

Latest Report: Dec 9, 2016 at 4:50 pm


Visibility: 3 mi

Pressure: 30.24 "Hg

Humidity: 94%

Dew Point: 50 °F

Location of BournemouthLocation

Past Weather in Bournemouth — Graph

°F

Bournemouth Temperature Yesterday

Maximum temperature yesterday: 55 °F (at 9:50 am)
Minimum temperature yesterday: 54 °F (at 6:20 am)
Average temperature yesterday: 54 °F

High & Low Weather Summary for the Past Weeks

 TemperatureHumidityPressure
High55 °F (Dec 7, 12:50 pm)100% (Nov 26, 5:50 am)30.60 "Hg (Nov 26, 5:50 am)
Low19 °F (Nov 30, 7:20 am)43% (Nov 28, 2:20 pm)30.07 "Hg (Nov 25, 1:20 pm)
Average43 °F85%30.29 "Hg
* Reported Nov 24 4:20 pm — Dec 9 4:20 pm, Bournemouth, Weather by CustomWeather, © 2016

Note: Actual official high and low records may vary slightly from our data, if they occured in-between our weather recording intervals... More about our weather records

Advertising

Bournemouth Weather History for the Previous 24 Hours

Scroll right to see more
 ConditionsComfort  
Time TempWeatherWind HumidityBarometerVisibility
4:20 pm
Fri, Dec 9
52 °FFog.10 mph94%30.24 "Hg2 mi
3:50 pm52 °FFog.10 mph94%30.24 "Hg2 mi
3:20 pm54 °FPartly sunny.12 mph94%30.27 "Hg4 mi
2:50 pm54 °FFog.10 mph94%30.27 "Hg3 mi
2:20 pm54 °FFog.10 mph94%30.27 "Hg3 mi
1:50 pm54 °FFog.9 mph94%30.27 "Hg3 mi
1:20 pm55 °FBroken clouds.10 mph88%30.30 "Hg4 mi
12:50 pm55 °FBroken clouds.9 mph94%30.30 "Hg4 mi
11:50 am55 °FRain. Scattered clouds.12 mph94%30.30 "Hg4 mi
11:20 am55 °FScattered clouds.9 mph94%30.30 "Hg4 mi
10:50 am55 °FFog.12 mph94%30.30 "Hg3 mi
10:20 am55 °FFog.10 mph94%30.30 "Hg4 mi
9:50 am54 °FFog.6 mph94%30.30 "Hg3 mi
9:20 am54 °FFog.7 mph94%30.30 "Hg3 mi
8:50 am54 °FFog.5 mph94%30.30 "Hg3 mi
8:20 am52 °FFog.6 mph100%30.30 "Hg3 mi
7:50 am52 °FFog.6 mph94%30.30 "Hg2 mi
7:20 am52 °FFog.5 mph100%30.30 "Hg3 mi
6:50 am52 °FFog.6 mph100%30.30 "Hg3 mi
6:20 am54 °FFog.5 mph94%30.30 "Hg3 mi
5:50 am54 °FFog.6 mph94%30.30 "Hg3 mi
11:20 pm
Thu, Dec 8
54 °FDrizzle. Fog.7 mph100%30.33 "Hg2 mi
10:50 pm54 °FDrizzle. Fog.7 mph100%30.33 "Hg2 mi
10:20 pm54 °FDrizzle. Fog.8 mph100%30.33 "Hg2 mi
9:50 pm54 °FFog.7 mph100%30.30 "Hg1 mi
9:20 pm54 °FFog.7 mph100%30.33 "Hg2 mi
8:50 pm54 °FFog.7 mph100%30.33 "Hg2 mi
8:20 pm55 °FFog.9 mph94%30.33 "Hg3 mi
7:50 pm54 °FFog.5 mph100%30.30 "Hg3 mi
7:20 pm54 °FFog.8 mph100%30.30 "Hg3 mi
6:50 pm54 °FFog.8 mph100%30.30 "Hg2 mi
6:20 pm54 °FFog.8 mph100%30.30 "Hg2 mi
5:50 pm54 °FFog.7 mph100%30.30 "Hg2 mi
5:20 pm54 °FFog.8 mph100%30.30 "Hg2 mi
Weather by CustomWeather, © 2016

See weather overviewHow to use our weather pages